Satellite-Ground Cal/Val Region Overpasses Predictions

Prediction of Satellite NPP Overpassing Cal/Val Region: PacNW

Region Location: (Latitude: 10.00, Longitude: 139.50) to (Latitude: 22.70, Longitude: 165.60).

Table of predicted overpasses for the next 14.0 days since TLE Epoch: 8/16/2014
Interval Starting Time Starting Location Ending Time Ending Location
1 08/16/2014 04:03:08 ( 10.00, 140.86) 08/16/2014 04:04:47 ( 15.82, 139.51)
2 08/16/2014 14:53:32 ( 22.67, 163.49) 08/16/2014 14:57:07 ( 10.05, 160.48)
3 08/17/2014 03:44:08 ( 10.03, 145.61) 08/17/2014 03:47:43 ( 22.65, 142.60)
4 08/17/2014 14:37:41 ( 11.61, 165.59) 08/17/2014 14:38:08 ( 10.02, 165.23)
5 08/17/2014 16:16:03 ( 22.64, 142.86) 08/17/2014 16:19:38 ( 10.02, 139.85)
6 08/18/2014 03:25:09 ( 10.05, 150.36) 08/18/2014 03:28:44 ( 22.67, 147.35)
7 08/18/2014 15:57:02 ( 22.68, 147.63) 08/18/2014 16:00:37 ( 10.06, 144.61)
8 08/19/2014 03:06:08 ( 10.02, 155.12) 08/19/2014 03:09:44 ( 22.70, 152.10)
9 08/19/2014 15:38:03 ( 22.65, 152.37) 08/19/2014 15:41:38 ( 10.03, 149.36)
10 08/20/2014 02:47:09 ( 10.05, 159.87) 08/20/2014 02:50:44 ( 22.67, 156.86)
11 08/20/2014 15:19:02 ( 22.68, 157.14) 08/20/2014 15:22:38 ( 10.00, 154.11)
12 08/21/2014 02:28:08 ( 10.02, 164.63) 08/21/2014 02:31:44 ( 22.69, 161.61)
13 08/21/2014 15:00:03 ( 22.65, 161.88) 08/21/2014 15:03:38 ( 10.03, 158.87)
14 08/22/2014 03:50:39 ( 10.04, 144.01) 08/22/2014 03:54:14 ( 22.66, 140.99)
15 08/22/2014 14:42:16 ( 18.40, 165.59) 08/22/2014 14:44:39 ( 10.01, 163.62)
16 08/22/2014 16:22:32 ( 22.69, 141.27) 08/22/2014 16:24:36 ( 15.41, 139.50)
17 08/23/2014 03:31:38 ( 10.01, 148.77) 08/23/2014 03:35:14 ( 22.69, 145.74)
18 08/23/2014 16:03:33 ( 22.66, 146.02) 08/23/2014 16:07:08 ( 10.04, 143.01)
19 08/24/2014 03:12:39 ( 10.04, 153.52) 08/24/2014 03:16:14 ( 22.65, 150.50)
20 08/24/2014 15:44:33 ( 22.69, 150.78) 08/24/2014 15:48:09 ( 10.01, 147.76)
21 08/25/2014 02:53:38 ( 10.01, 158.28) 08/25/2014 02:57:14 ( 22.68, 155.25)
22 08/25/2014 15:25:33 ( 22.66, 155.53) 08/25/2014 15:29:08 ( 10.04, 152.52)
23
